Weather History for KEMV - February, 2014

Change the Weather History Date:

Wednesday, February 12, 2014

  Actual Average Record
Temperature  
Mean Temperature 26 °F -  
Max Temperature 32 °F 51 °F 66 °F (2009)
Min Temperature 19 °F 28 °F 15 °F (1985)
Degree Days  
Heating Degree Days 40    
Moisture  
Dew Point 19 °F    
Average Humidity 77    
Maximum Humidity 100    
Minimum Humidity 47    
Precipitation  
Precipitation 0.02 in - - ()
Sea Level Pressure  
Sea Level Pressure 30.33 in    
Wind  
Wind Speed 5 mph (North)    
Max Wind Speed 15 mph    
Max Gust Speed 21 mph    
Visibility 7 miles    
Events Snow    
Averages and records for this station are not official NWS values.
T = Trace of Precipitation, MM = Missing Value Source: NWS Daily Summary

Daily Weather History Graph

Daily Weather History Graph

Search for Another Location

Airport or City:

Trip Planner

Search our weather history database for the weather conditions in past years. The results will help you decide how hot, cold, wet, or windy it might be!

Date:

Astronomy

Feb. 12, 2014 Rise Set
Actual Time 7:01 AM EST 5:47 PM EST
Civil Twilight 6:34 AM EST 6:13 PM EST
Nautical Twilight 6:04 AM EST 6:44 PM EST
Astronomical Twilight 5:34 AM EST 7:14 PM EST
Moon 4:00 PM EST (2/12) 5:15 AM EST (2/12)
Length of Visible Light 11h 39m
Length of Day
10h 45m
Waxing Gibbous, 95% of the Moon is Illuminated
Feb 12
Waxing Gibbous
Feb 14
Full
Feb 22
Last Quarter
Mar 1
New
Mar 8
First Quarter

Hourly Weather History & Observations

Time (EST) Temp. Windchill Dew Point Humidity Pressure Visibility Wind Dir Wind Speed Gust Speed Precip Events Conditions
12:14 AM 19.4 °F - 17.6 °F 93% 30.45 in 10.0 mi Calm Calm - N/A   Clear
12:15 AM 21.2 °F - 17.6 °F 86% 30.45 in 10.0 mi Calm Calm - N/A   Clear
12:35 AM 19.4 °F - 17.6 °F 93% 30.46 in 10.0 mi Calm Calm - N/A   Clear
12:55 AM 21.2 °F 16.4 °F 17.6 °F 86% 30.45 in 10.0 mi NNW 3.5 mph - N/A   Clear
1:15 AM 21.2 °F - 15.8 °F 80% 30.46 in 10.0 mi Calm Calm - N/A   Clear
1:35 AM 21.2 °F 16.4 °F 14.0 °F 74% 30.46 in 10.0 mi NW 3.5 mph - N/A   Clear
1:55 AM 21.2 °F - 14.0 °F 74% 30.46 in 10.0 mi Calm Calm - N/A   Clear
2:15 AM 21.2 °F 16.4 °F 15.8 °F 80% 30.46 in 10.0 mi North 3.5 mph - N/A   Clear
2:35 AM 21.2 °F 16.4 °F 14.0 °F 74% 30.45 in 10.0 mi North 3.5 mph - N/A   Clear
2:55 AM 21.2 °F 14.9 °F 15.8 °F 80% 30.45 in 10.0 mi North 4.6 mph - N/A   Clear
3:15 AM 21.2 °F 16.4 °F 14.0 °F 74% 30.46 in 10.0 mi North 3.5 mph - N/A   Clear
3:35 AM 21.2 °F 13.6 °F 14.0 °F 74% 30.45 in 10.0 mi North 5.8 mph - N/A   Clear
3:55 AM 21.2 °F 14.9 °F 14.0 °F 74% 30.46 in 10.0 mi NNW 4.6 mph - N/A   Clear
4:15 AM 21.2 °F 14.9 °F 14.0 °F 74% 30.47 in 10.0 mi NNW 4.6 mph - N/A   Clear
4:35 AM 21.2 °F 13.6 °F 14.0 °F 74% 30.48 in 10.0 mi NNW 5.8 mph - N/A   Clear
4:55 AM 21.2 °F 13.6 °F 14.0 °F 74% 30.47 in 10.0 mi North 5.8 mph - N/A   Clear
5:15 AM 21.2 °F 13.6 °F 14.0 °F 74% 30.47 in 10.0 mi North 5.8 mph - N/A   Clear
5:35 AM 21.2 °F 14.9 °F 14.0 °F 74% 30.47 in 10.0 mi North 4.6 mph - N/A   Clear
5:55 AM 21.2 °F 12.6 °F 14.0 °F 74% 30.47 in 10.0 mi North 6.9 mph - N/A   Clear
6:15 AM 21.2 °F 13.6 °F 14.0 °F 74% 30.48 in 10.0 mi NNW 5.8 mph - N/A   Clear
6:35 AM 21.2 °F 13.6 °F 14.0 °F 74% 30.47 in 10.0 mi North 5.8 mph - N/A   Clear
6:55 AM 21.2 °F 13.6 °F 14.0 °F 74% 30.47 in 10.0 mi North 5.8 mph - N/A   Clear
7:15 AM 21.2 °F 11.7 °F 14.0 °F 74% 30.47 in 10.0 mi NNW 8.1 mph - N/A   Clear
7:35 AM 21.2 °F 16.4 °F 14.0 °F 74% 30.46 in 10.0 mi North 3.5 mph - N/A   Clear
7:55 AM 21.2 °F 14.9 °F 14.0 °F 74% 30.47 in 10.0 mi North 4.6 mph - N/A   Clear
8:15 AM 21.2 °F 12.6 °F 14.0 °F 74% 30.47 in 10.0 mi North 6.9 mph - N/A   Clear
8:35 AM 23.0 °F 14.7 °F 14.0 °F 68% 30.47 in 10.0 mi North 6.9 mph - N/A   Clear
8:55 AM 23.0 °F 14.7 °F 14.0 °F 68% 30.48 in 10.0 mi North 6.9 mph - N/A   Clear
9:15 AM 24.8 °F 16.1 °F 14.0 °F 64% 30.49 in 10.0 mi NNE 8.1 mph - N/A   Clear
9:35 AM 24.8 °F 17.9 °F 14.0 °F 64% 30.48 in 10.0 mi North 5.8 mph - N/A   Clear
9:55 AM 26.6 °F 18.2 °F 14.0 °F 59% 30.47 in 10.0 mi North 8.1 mph - N/A   Clear
10:15 AM 26.6 °F 19.1 °F 14.0 °F 59% 30.47 in 10.0 mi North 6.9 mph - N/A   Clear
10:35 AM 26.6 °F 18.2 °F 14.0 °F 59% 30.48 in 10.0 mi North 8.1 mph - N/A   Clear
10:55 AM 26.6 °F 16.8 °F 14.0 °F 59% 30.47 in 10.0 mi North 10.4 mph - N/A   Clear
11:15 AM 28.4 °F 21.2 °F 12.2 °F 51% 30.46 in 10.0 mi North 6.9 mph - N/A   Clear
11:35 AM 28.4 °F 20.4 °F 12.2 °F 51% 30.44 in 10.0 mi North 8.1 mph - N/A   Scattered Clouds
11:55 AM 28.4 °F 19.7 °F 12.2 °F 51% 30.43 in 10.0 mi North 9.2 mph - N/A   Mostly Cloudy
12:15 PM 28.4 °F 21.2 °F 10.4 °F 47% 30.42 in 10.0 mi North 6.9 mph - N/A   Mostly Cloudy
12:35 PM 28.4 °F 22.2 °F 12.2 °F 51% 30.42 in 10.0 mi NNW 5.8 mph - N/A   Overcast
12:55 PM 28.4 °F 20.4 °F 12.2 °F 51% 30.41 in 10.0 mi North 8.1 mph - N/A   Overcast
1:15 PM 28.4 °F 21.2 °F 12.2 °F 51% 30.40 in 10.0 mi North 6.9 mph - N/A   Overcast
1:35 PM 28.4 °F 21.2 °F 12.2 °F 51% 30.38 in 10.0 mi North 6.9 mph - N/A   Overcast
1:55 PM 28.4 °F 19.7 °F 12.2 °F 51% 30.36 in 10.0 mi NNW 9.2 mph - N/A   Overcast
2:15 PM 28.4 °F 22.2 °F 12.2 °F 51% 30.35 in 5.0 mi North 5.8 mph - N/A Snow Light Snow
2:35 PM 26.6 °F 20.0 °F 19.4 °F 74% 30.34 in 1.5 mi North 5.8 mph - N/A Snow Light Snow
2:55 PM 26.6 °F 16.8 °F 21.2 °F 80% 30.33 in 1.2 mi North 10.4 mph - N/A Snow Light Snow
3:15 PM 26.6 °F 17.5 °F 23.0 °F 86% 30.31 in 0.8 mi NNW 9.2 mph - N/A Snow Light Snow
3:35 PM 26.6 °F 17.5 °F 23.0 °F 86% 30.30 in 0.8 mi NNW 9.2 mph - N/A Snow Light Snow
3:55 PM 26.6 °F 17.5 °F 23.0 °F 86% 30.29 in 0.5 mi NNW 9.2 mph - N/A Snow Snow
4:15 PM 26.6 °F 17.5 °F 23.0 °F 86% 30.27 in 0.5 mi North 9.2 mph - N/A Snow Snow
4:35 PM 26.6 °F 18.2 °F 23.0 °F 86% 30.26 in 0.5 mi NNW 8.1 mph - N/A Snow Light Snow
4:55 PM 26.6 °F 18.2 °F 23.0 °F 86% 30.25 in 0.8 mi NNW 8.1 mph 16.1 mph N/A Snow Light Snow
5:15 PM 26.6 °F 18.2 °F 23.0 °F 86% 30.24 in 1.2 mi NNW 8.1 mph - N/A Snow Light Snow
5:35 PM 26.6 °F 19.1 °F 23.0 °F 86% 30.23 in 1.0 mi North 6.9 mph - N/A Snow Snow
5:55 PM 26.6 °F 18.2 °F 24.8 °F 93% 30.21 in 1.2 mi North 8.1 mph - N/A Snow Light Snow
6:15 PM 26.6 °F 17.5 °F 24.8 °F 93% 30.20 in 2.0 mi North 9.2 mph - N/A Snow Light Snow
6:35 PM 26.6 °F 18.2 °F 24.8 °F 93% 30.19 in 2.0 mi North 8.1 mph - N/A Snow Light Snow
6:55 PM 26.6 °F 16.8 °F 24.8 °F 93% 30.18 in 2.0 mi North 10.4 mph 16.1 mph N/A Snow Light Snow
7:15 PM 26.6 °F 17.5 °F 24.8 °F 93% 30.16 in 2.0 mi North 9.2 mph - N/A Snow Light Snow
7:35 PM 26.6 °F 17.5 °F 24.8 °F 93% 30.15 in 1.5 mi North 9.2 mph 16.1 mph N/A Snow Light Snow
7:55 PM 28.4 °F 19.7 °F 26.6 °F 93% 30.14 in 1.2 mi North 9.2 mph 16.1 mph N/A Snow Light Snow
8:15 PM 28.4 °F 18.0 °F 26.6 °F 93% 30.10 in 1.8 mi North 12.7 mph 16.1 mph 0.01 in Snow Light Snow
8:35 PM 26.6 °F 15.7 °F 26.6 °F 100% 30.07 in 3.0 mi North 12.7 mph 20.7 mph 0.01 in Snow Light Snow
8:55 PM 28.4 °F 18.0 °F 26.6 °F 93% 30.05 in 5.0 mi North 12.7 mph 18.4 mph 0.01 in Snow Light Snow
9:15 PM 28.4 °F 17.0 °F 26.6 °F 93% 30.03 in 7.0 mi North 15.0 mph 19.6 mph N/A Snow Light Snow
9:35 PM 30.2 °F 20.2 °F 28.4 °F 93% 30.01 in 5.0 mi North 12.7 mph 18.4 mph N/A Snow Light Snow
9:55 PM 30.2 °F 20.2 °F 28.4 °F 93% 29.99 in 5.0 mi North 12.7 mph 19.6 mph N/A   Overcast
10:15 PM 30.2 °F 19.3 °F 28.4 °F 93% 29.97 in 7.0 mi North 15.0 mph 20.7 mph N/A   Overcast
10:35 PM 32.0 °F 24.8 °F 30.2 °F 93% 29.95 in 4.0 mi North 8.1 mph 18.4 mph N/A   Overcast
10:55 PM 32.0 °F 25.6 °F 30.2 °F 93% 29.94 in 4.0 mi North 6.9 mph - N/A   Overcast
11:15 PM 32.0 °F 22.5 °F 30.2 °F 93% 29.91 in 3.0 mi NNW 12.7 mph 17.3 mph N/A   Heavy Drizzle
11:35 PM 32.0 °F 23.6 °F 32.0 °F 100% 29.89 in 3.0 mi North 10.4 mph 16.1 mph N/A Snow Light Snow
11:55 PM 32.0 °F 23.0 °F 32.0 °F 100% 29.86 in 3.0 mi North 11.5 mph 17.3 mph 0.01 in Snow Light Snow